Location: Black River Observatory
(43.1000°N, 82.6200°W)
Time: 00:24:21
(UTC-04:00)

Daily predictions for brighter satellites

Satellite Brightness Start Highest point End
(mag) Time Altitude Azimuth Time Altitude Azimuth Time Altitude Azimuth
Cosmos 2369 Rocket 4.5 04:30:23 16° N 04:30:23 16° N 04:31:28 10° NNE
Lacrosse 5 4.4 04:36:58 15° NNE 04:36:58 15° NNE 04:38:12 10° NNE
ADEOS II 3.4 04:42:21 10° NNE 04:45:47 36° NE 04:45:47 36° NE
USA 215 3.7 04:42:02 10° NE 04:47:12 51° N 04:47:12 51° N
Okean O Rocket 3.6 04:52:54 10° NE 04:56:37 26° E 04:56:59 26° ESE
Cosmos 2219 3.7 05:00:19 56° ENE 05:00:19 56° ENE 05:05:48 10° SE
NOSS 3-1 (C) 3.5 05:05:14 71° E 05:05:14 71° E 05:11:14 10° NE
Cosmos 2297 Rocket 4.4 05:01:02 10° N 05:05:25 22° NE 05:09:45 10° E
CZ-4C R/B 4.4 05:12:18 22° S 05:12:18 22° S 05:15:02 10° S
USA 229 DEB 3.9 05:09:24 55° NNW 05:09:24 55° NNW 05:15:29 10° NNE
USA 229 3.9 05:09:29 56° NNW 05:09:29 56° NNW 05:15:34 10° NNE
NOSS 3-1 (A) 3.6 05:11:55 57° SSE 05:12:36 61° ESE 05:18:56 10° NE
Cosmos 1943 Rocket 3.9 05:16:16 21° N 05:16:16 21° N 05:18:26 10° N
Cosmos 2154 Rocket 4.3 05:12:42 10° N 05:24:04 17° S 05:25:20 10° S
USA 267 3.1 05:13:07 10° SE 05:19:40 79° SW 05:20:23 70° W
Meteor 1-16 Rocket 4.3 05:23:22 10° N 05:29:07 78° E 05:34:58 10° SSE
CZ-4B R/B 3.8 05:29:53 10° NNE 05:35:17 57° E 05:40:46 10° S
SJ 16-02 1.6 05:36:01 65° ESE 05:36:12 66° ESE 05:40:33 10° NNE
Meteor 2-5 Rocket 3.7 05:34:52 21° S 05:39:00 86° E 05:44:49 10° N
PSLV R/B 4.3 05:36:43 10° N 05:39:37 42° N 05:39:37 42° N
Cosmos 1809 Rocket 4.3 05:39:31 10° N 05:45:39 81° W 05:51:48 10° S
Cosmos 372 Rocket 3.9 05:45:22 43° SSW 05:47:09 90° E 05:52:26 10° NNE
Cosmos 962 Rocket 4.3 05:44:08 10° NNW 05:50:11 62° W 05:56:11 10° S
USA 81 4.2 05:45:30 10° S 05:50:45 75° E 05:56:02 10° N
CZ-2C R/B 4.4 05:46:51 10° SSE 05:51:28 55° ENE 05:56:03 10° N
Cosmos 2218 Rocket 4.1 05:49:56 10° N 05:56:13 77° E 06:02:33 10° SSE
Cosmos 1356 3.7 05:56:24 58° SE 05:56:51 67° E 06:00:21 10° NNE
Cosmos 1269 Rocket 3.9 05:53:32 13° NNW 05:58:21 77° WSW 06:03:38 10° SSE
Meteor 2-21 Rocket 4.3 06:02:18 10° NNW 06:08:21 70° W 06:14:24 10° S
Cosmos 1674 4.2 06:06:11 10° SSE 06:09:36 36° E 06:13:03 10° NNE
Cosmos 2227 Rocket 2.3 06:07:05 10° NNW 06:12:48 79° ENE 06:18:28 10° SSE
Cosmos 494 Rocket 4.5 06:08:59 10° NNW 06:14:08 61° ENE 06:19:17 10° SSE
Cosmos 2341 Rocket 4.3 06:09:29 10° NNW 06:15:25 41° W 06:21:19 10° SSW
Cosmos 2181 Rocket 4.1 06:10:00 10° SSW 06:16:02 52° WNW 06:22:02 10° N
Cosmos 1125 Rocket 3.7 06:14:18 33° WSW 06:16:14 47° WNW 06:21:22 10° N
Lacrosse 5 4.0 06:16:10 12° NNW 06:18:57 17° N 06:22:16 10° NE
Cosmos 1959 Rocket 4.4 06:13:24 10° NNW 06:19:41 72° W 06:25:50 10° S
SJ-6F 4.3 06:17:46 10° NNE 06:21:53 89° W 06:25:57 10° SSW
CZ-3 Stage 3 4.3 06:18:26 17° SW 06:22:08 37° SSE 06:42:17 10° ESE
ADEOS II 3.2 06:22:49 10° NNW 06:26:43 23° WNW 06:26:43 23° WNW
Meteor 1-24 Rocket 3.8 06:21:25 10° SSW 06:27:20 61° WNW 06:33:10 10° N
USA 215 4.3 06:25:11 10° NE 06:30:40 30° NNW 06:34:33 17° WNW
NOAA 6 4.5 06:26:39 10° NNE 06:31:48 65° ESE 06:36:54 10° S
IDEFIX/ARIANE 42P 4.1 06:26:57 10° NNE 06:31:51 39° E 06:36:42 10° SSE
SL-08 R/B 4.4 06:25:52 10° NNW 06:32:00 68° W 06:38:14 10° S
Okean O Rocket 2.4 06:29:06 10° N 06:32:59 31° WNW 06:34:26 25° WSW
CZ-4B R/B 4.2 06:31:09 10° N 06:35:33 54° WNW 06:39:56 10° SSW
Cosmos 1656 3.9 06:33:45 10° SSW 06:39:25 77° ESE 06:45:08 10° NNE
Meteor 1-31 Rocket 3.1 06:37:07 10° N 06:40:41 39° WNW 06:44:15 10° SW
ATLAS CENTAUR R/B 3.5 06:39:44 10° N 06:42:40 21° NE 06:45:41 10° E
Cosmos 2219 4.3 06:42:23 19° WNW 06:43:57 22° W 06:48:07 10° SSW
Cosmos 2221 2.6 06:40:10 10° N 06:44:35 86° ENE 06:48:58 10° S
Cosmos 2084 Rocket 3.3 06:40:47 12° SW 06:44:42 67° NW 06:48:45 10° NNE
Cosmos 2297 Rocket 2.2 06:44:20 10° NNW 06:49:56 64° WSW 06:55:29 10° S
KORONAS-FOTON 3.8 06:46:18 10° S 06:50:04 84° E 06:53:53 10° N
COSMO-SKYMED 1 2.5 06:46:02 10° S 06:50:22 81° WSW 06:54:44 10° NNW
ATLAS 2AS CENTAUR R/B 3.7 06:43:55 10° SSW 06:51:27 61° ESE 06:59:26 10° NE
Cosmos 1818 4.4 06:46:39 10° SSW 06:51:54 54° ESE 06:57:12 10° NE
Cosmos 2251 Rocket 3.5 06:47:24 10° NNW 06:52:49 85° WSW 06:58:11 10° SSE
Okean-O 2.5 06:49:40 10° N 06:54:06 74° WNW 06:58:31 10° SSW
Cosmos 1908 3.3 06:51:38 10° NNW 06:55:22 51° W 06:59:04 10° S
Cosmos 2366 rocket 4.3 06:51:24 10° NNW 06:57:04 40° W 07:02:46 10° SSW
Cosmos 1697 Rocket 3.0 06:52:22 10° SSW 06:58:00 74° ESE 07:03:41 10° NNE
NOSS 2-3 (E) 3.9 06:53:32 10° SW 06:58:13 78° NW 07:03:46 10° NE
Cosmos 2082 3.8 06:55:20 10° NNW 07:00:50 53° WSW 07:06:16 10° S
Cosmos 1842 Rocket 4.4 06:58:36 10° NNW 07:02:15 27° W 07:05:52 10° SW
USA 267 4.5 06:58:38 10° S 07:03:18 21° WSW 07:07:44 11° WNW
NOSS 3-1 (A) 4.4 06:59:24 13° W 07:03:59 31° NW 07:09:53 10° NNE
EO 1 Del DPAF 3.7 07:01:07 10° SSW 07:04:42 38° W 07:08:19 10° NNW
Feng Yun 1-1 Rocket 4.3 07:00:24 10° N 07:05:58 62° WNW 07:11:39 10° SSW
Cosmos 1980 Rocket 3.0 07:07:37 10° S 07:13:04 57° ESE 07:18:36 10° NNE
SJ 16-02 3.1 07:13:06 10° W 07:15:16 14° NW 07:17:32 10° NNW
CZ-4B R/B 4.3 07:11:19 10° NNW 07:15:27 22° WNW 07:19:37 10° WSW
Meteor 1-28 Rocket 4.5 07:13:48 10° SW 07:16:44 21° W 07:19:42 10° NW
ATLAS 3B R/B 3.1 07:10:21 10° NNW 07:17:02 62° NE 07:23:27 10° SE
Cosmos 1300 2.7 07:14:18 10° N 07:18:09 86° E 07:21:58 10° S
GRACE-1 4.0 07:18:12 10° N 07:20:45 70° E 07:23:18 10° S
Meteor 1-21 Rocket 4.3 07:17:13 10° SSW 07:22:53 57° WNW 07:28:28 10° N
Cosmos 1076 Rocket 3.6 07:20:12 10° SSW 07:24:26 53° W 07:28:42 10° N
Cosmos 2369 4.2 07:20:38 10° SW 07:25:54 40° WNW 07:31:13 10° NNE
Cosmos 1626 3.8 07:26:08 10° SSE 07:29:38 40° E 07:33:09 10° NNE
Cosmos 1934 Rocket 4.1 07:23:59 10° N 07:30:15 88° W 07:36:24 10° S
Cosmos 1821 Rocket 4.1 07:26:38 10° NNW 07:32:58 65° W 07:39:16 10° S
